User: anonymous   Login
Location: Caltech
(34.1382°N, 118.1253°W)
Time: 09:13:57
(UTC-07:00)
Language:

PANSAT - Orbit

View from above orbital plane
View from above orbital plane
View from above satellite
View from above satellite

Ground track
Ground track

The orbit data is extracted from the following two-line orbital elements,

1 25520U 98064B   15212.57246662  .00001809  00000-0  59286-4 0  9992
2 25520 028.4579 335.5613 0004771 321.7509 132.6185 15.26469829929191
Epoch (UTC): 31 July 2015 13:44:21
Eccentricity: 0.0004771
inclination: 28.4579°
perigee height: 483 km
apogee height: 489 km
right ascension of ascending node: 335.5613°
argument of perigee: 321.7509°
revolutions per day: 15.26469829
mean anomaly at epoch: 132.6185°
orbit number at epoch: 92919

The dashed part of the orbit path shows where the satellite is in the earth's shadow,  

DLR